DAL8635 KLAX-KMRY

Flight info

Callsign DAL8635
Flight time 0h 43m
Altitude 30000
Route SUMMR2 SCTRR WIGGL
Aircraft A321/M-SDE3FGHIRWY/LB1

Departure

Time 2026-04-21 23:58
Airport Los Angeles International Airport (KLAX)

Arrival

Time 2026-04-22 00:42
Airport Monterey Regional Airport (KMRY)
Time Latitude Longitude Altitude Speed Heading
2026-04-21 23:17 33.94713 -118.40480 93 ft 0 kts 132°
2026-04-21 23:45 33.94732 -118.40506 93 ft 4 kts 132°
2026-04-21 23:45 33.94747 -118.40526 93 ft 3 kts 131°
2026-04-21 23:46 33.94760 -118.40550 93 ft 4 kts 88°
2026-04-21 23:46 33.94754 -118.40562 93 ft 4 kts
2026-04-21 23:46 33.94730 -118.40560 93 ft 1 kts 353°
2026-04-21 23:46 33.94706 -118.40557 93 ft 4 kts 353°
2026-04-21 23:47 33.94692 -118.40555 93 ft 0 kts 353°
2026-04-21 23:49 33.94693 -118.40555 93 ft 2 kts 353°
2026-04-21 23:49 33.94718 -118.40558 93 ft 0 kts 353°
2026-04-21 23:52 33.94731 -118.40561 93 ft 5 kts 350°
2026-04-21 23:52 33.94784 -118.40588 93 ft 10 kts 335°
2026-04-21 23:52 33.94844 -118.40593 94 ft 8 kts 25°
2026-04-21 23:52 33.94866 -118.40548 94 ft 6 kts 78°
2026-04-21 23:53 33.94872 -118.40507 94 ft 4 kts 82°
2026-04-21 23:53 33.94878 -118.40454 94 ft 7 kts 82°
2026-04-21 23:53 33.94885 -118.40387 94 ft 13 kts 84°
2026-04-21 23:53 33.94899 -118.40245 94 ft 18 kts 83°
2026-04-21 23:54 33.94913 -118.40102 94 ft 17 kts 83°
2026-04-21 23:54 33.94920 -118.40042 93 ft 0 kts 83°
2026-04-21 23:54 33.94921 -118.40032 93 ft 1 kts 83°
2026-04-21 23:55 33.94926 -118.39983 93 ft 15 kts 81°
2026-04-21 23:55 33.94947 -118.39930 93 ft 0 kts 44°
2026-04-21 23:55 33.94948 -118.39930 93 ft 1 kts 44°
2026-04-21 23:55 33.95002 -118.39911 93 ft 12 kts 356°
2026-04-21 23:56 33.95041 -118.39969 93 ft 9 kts 263°
2026-04-21 23:56 33.95040 -118.39978 93 ft 0 kts 263°
2026-04-21 23:57 33.95029 -118.40077 95 ft 42 kts 262°
2026-04-21 23:58 33.94967 -118.40693 98 ft 104 kts 263°
2026-04-21 23:58 33.94856 -118.41765 96 ft 151 kts 263°
2026-04-21 23:58 33.94719 -118.43158 239 ft 176 kts 263°
2026-04-21 23:58 33.94566 -118.44595 817 ft 172 kts 261°
2026-04-21 23:59 33.94419 -118.46024 1402 ft 172 kts 263°
2026-04-21 23:59 33.94314 -118.47472 1851 ft 178 kts 266°
2026-04-21 23:59 33.94259 -118.49048 2000 ft 198 kts 267°
2026-04-21 23:59 33.94211 -118.50791 2128 ft 219 kts 267°
2026-04-22 00:00 33.94105 -118.52714 2305 ft 240 kts 265°
2026-04-22 00:00 33.93951 -118.54751 2741 ft 251 kts 264°
2026-04-22 00:00 33.93775 -118.56903 3291 ft 262 kts 264°
2026-04-22 00:00 33.93594 -118.59108 4039 ft 266 kts 264°
2026-04-22 00:01 33.93412 -118.61341 4781 ft 270 kts 264°
2026-04-22 00:01 33.93230 -118.63603 5502 ft 273 kts 264°
2026-04-22 00:01 33.93046 -118.65897 6191 ft 277 kts 264°
2026-04-22 00:01 33.92863 -118.68219 6854 ft 280 kts 264°
2026-04-22 00:02 33.92681 -118.70567 7498 ft 283 kts 264°
2026-04-22 00:02 33.92498 -118.72944 8121 ft 287 kts 264°
2026-04-22 00:02 33.92312 -118.75346 8719 ft 290 kts 264°
2026-04-22 00:02 33.92124 -118.77772 9295 ft 293 kts 264°
2026-04-22 00:03 33.91937 -118.80193 9840 ft 296 kts 264°
2026-04-22 00:03 33.91745 -118.82697 10138 ft 309 kts 266°
2026-04-22 00:03 33.91758 -118.85350 10270 ft 326 kts 272°
2026-04-22 00:03 33.91847 -118.88179 10402 ft 342 kts 272°
2026-04-22 00:04 33.91933 -118.91074 10720 ft 350 kts 271°
2026-04-22 00:04 33.92018 -118.94018 11181 ft 354 kts 271°
2026-04-22 00:04 33.92103 -118.96950 11644 ft 357 kts 271°
2026-04-22 00:04 33.92303 -118.99935 12084 ft 360 kts 280°
2026-04-22 00:05 33.93010 -119.02835 12515 ft 363 kts 292°
2026-04-22 00:05 33.94220 -119.05515 12934 ft 366 kts 302°
2026-04-22 00:05 33.95579 -119.08123 13341 ft 369 kts 302°
2026-04-22 00:05 33.96941 -119.10747 13740 ft 371 kts 301°
2026-04-22 00:06 33.98310 -119.13398 14130 ft 374 kts 301°
2026-04-22 00:06 33.99686 -119.16068 14511 ft 376 kts 302°
2026-04-22 00:06 34.01296 -119.18563 14867 ft 379 kts 314°
2026-04-22 00:06 34.03306 -119.20634 15221 ft 382 kts 324°
2026-04-22 00:07 34.05483 -119.22488 15568 ft 384 kts 324°
2026-04-22 00:07 34.07670 -119.24359 15904 ft 387 kts 324°
2026-04-22 00:07 34.09868 -119.26247 16223 ft 389 kts 324°
2026-04-22 00:07 34.12073 -119.28145 16536 ft 391 kts 324°
2026-04-22 00:08 34.14294 -119.30056 16834 ft 393 kts 324°
2026-04-22 00:08 34.16527 -119.31977 17117 ft 395 kts 324°
2026-04-22 00:08 34.18770 -119.33910 17392 ft 397 kts 324°
2026-04-22 00:08 34.21018 -119.35848 17660 ft 399 kts 324°
2026-04-22 00:09 34.23280 -119.37800 17913 ft 400 kts 324°
2026-04-22 00:09 34.25552 -119.39764 18156 ft 402 kts 324°
2026-04-22 00:09 34.27831 -119.41739 18389 ft 404 kts 324°
2026-04-22 00:09 34.30120 -119.43723 18613 ft 406 kts 324°
2026-04-22 00:10 34.32419 -119.45714 18833 ft 407 kts 324°
2026-04-22 00:10 34.34727 -119.47711 19041 ft 408 kts 324°
2026-04-22 00:10 34.37038 -119.49711 19240 ft 410 kts 324°
2026-04-22 00:10 34.39361 -119.51723 19429 ft 411 kts 324°
2026-04-22 00:11 34.41689 -119.53750 19616 ft 413 kts 323°
2026-04-22 00:11 34.43992 -119.55835 19794 ft 414 kts 322°
2026-04-22 00:11 34.46271 -119.57975 19964 ft 415 kts 321°
2026-04-22 00:11 34.48540 -119.60148 20134 ft 416 kts 321°
2026-04-22 00:12 34.50812 -119.62334 20286 ft 417 kts 321°
2026-04-22 00:12 34.53095 -119.64520 20436 ft 419 kts 321°
2026-04-22 00:12 34.55385 -119.66698 20580 ft 420 kts 321°
2026-04-22 00:12 34.57692 -119.68879 20721 ft 421 kts 322°
2026-04-22 00:13 34.60007 -119.71062 20857 ft 422 kts 322°
2026-04-22 00:13 34.62327 -119.73251 20990 ft 423 kts 322°
2026-04-22 00:13 34.64621 -119.75417 21120 ft 424 kts 322°
2026-04-22 00:13 34.66949 -119.77620 21246 ft 425 kts 321°
2026-04-22 00:14 34.69280 -119.79830 21371 ft 425 kts 321°
2026-04-22 00:14 34.71611 -119.82047 21530 ft 424 kts 321°
2026-04-22 00:14 34.73881 -119.84207 22320 ft 408 kts 321°
2026-04-22 00:14 34.76119 -119.86335 22461 ft 409 kts 321°
2026-04-22 00:15 34.78361 -119.88466 22587 ft 410 kts 321°
2026-04-22 00:15 34.80614 -119.90608 22712 ft 412 kts 321°
2026-04-22 00:15 34.82873 -119.92754 22837 ft 412 kts 321°
2026-04-22 00:15 34.85134 -119.94908 22962 ft 413 kts 321°
2026-04-22 00:16 34.86635 -119.96341 23045 ft 413 kts 321°
2026-04-22 00:16 34.88895 -119.98500 23179 ft 413 kts 321°
2026-04-22 00:16 34.91151 -120.00656 23426 ft 411 kts 321°
2026-04-22 00:16 34.93393 -120.02796 23675 ft 408 kts 321°
2026-04-22 00:17 34.95613 -120.04919 23906 ft 406 kts 321°
2026-04-22 00:17 34.97837 -120.07048 23995 ft 407 kts 321°
2026-04-22 00:17 35.00075 -120.09190 24010 ft 411 kts 321°
2026-04-22 00:17 35.02334 -120.11352 24010 ft 414 kts 321°
2026-04-22 00:18 35.04610 -120.13533 24010 ft 417 kts 321°
2026-04-22 00:18 35.06897 -120.15727 24010 ft 420 kts 321°
2026-04-22 00:18 35.09206 -120.17941 24010 ft 423 kts 321°
2026-04-22 00:18 35.11526 -120.20172 24010 ft 426 kts 321°
2026-04-22 00:19 35.13855 -120.22414 24010 ft 428 kts 321°
2026-04-22 00:19 35.16201 -120.24675 24010 ft 430 kts 321°
2026-04-22 00:19 35.18560 -120.26934 24010 ft 432 kts 322°
2026-04-22 00:19 35.20963 -120.29166 24009 ft 435 kts 323°
2026-04-22 00:20 35.23395 -120.31378 24009 ft 436 kts 323°
2026-04-22 00:20 35.25839 -120.33586 24009 ft 438 kts 323°
2026-04-22 00:20 35.28297 -120.35807 24009 ft 440 kts 323°
2026-04-22 00:20 35.30760 -120.38040 24009 ft 441 kts 323°
2026-04-22 00:21 35.33226 -120.40290 24009 ft 443 kts 323°
2026-04-22 00:21 35.35690 -120.42550 24009 ft 444 kts 323°
2026-04-22 00:21 35.38164 -120.44823 24009 ft 445 kts 323°
2026-04-22 00:21 35.40640 -120.47101 24007 ft 443 kts 323°
2026-04-22 00:22 35.43070 -120.49333 24006 ft 432 kts 323°
2026-04-22 00:22 35.45464 -120.51534 24009 ft 429 kts 323°
2026-04-22 00:22 35.47845 -120.53725 24009 ft 428 kts 322°
2026-04-22 00:22 35.50194 -120.55891 24009 ft 428 kts 322°
2026-04-22 00:23 35.52574 -120.58086 24009 ft 428 kts 322°
2026-04-22 00:23 35.55006 -120.60281 24009 ft 428 kts 324°
2026-04-22 00:23 35.57434 -120.62391 24009 ft 428 kts 324°
2026-04-22 00:23 35.59882 -120.64473 24009 ft 428 kts 325°
2026-04-22 00:24 35.62302 -120.66518 24009 ft 427 kts 325°
2026-04-22 00:24 35.64756 -120.68599 24008 ft 421 kts 325°
2026-04-22 00:24 35.67129 -120.70625 24009 ft 420 kts 324°
2026-04-22 00:24 35.69521 -120.72682 24009 ft 419 kts 324°
2026-04-22 00:25 35.71908 -120.74744 24009 ft 419 kts 324°
2026-04-22 00:25 35.74290 -120.76808 24009 ft 419 kts 324°
2026-04-22 00:25 35.76709 -120.78904 23785 ft 421 kts 324°
2026-04-22 00:25 35.79093 -120.80970 22902 ft 426 kts 324°
2026-04-22 00:26 35.81494 -120.83052 22512 ft 418 kts 324°
2026-04-22 00:26 35.83854 -120.85102 22029 ft 412 kts 324°
2026-04-22 00:26 35.86182 -120.87127 21519 ft 408 kts 324°
2026-04-22 00:26 35.88491 -120.89137 21008 ft 404 kts 324°
2026-04-22 00:27 35.90779 -120.91126 20502 ft 401 kts 324°
2026-04-22 00:27 35.93048 -120.93096 20002 ft 397 kts 324°
2026-04-22 00:27 35.95294 -120.95046 19508 ft 393 kts 324°
2026-04-22 00:27 35.97517 -120.96980 18941 ft 389 kts 324°
2026-04-22 00:28 35.99717 -120.98898 18347 ft 385 kts 324°
2026-04-22 00:28 36.01893 -121.00798 17766 ft 381 kts 324°
2026-04-22 00:28 36.04040 -121.02674 17154 ft 376 kts 324°
2026-04-22 00:28 36.06160 -121.04529 16409 ft 371 kts 324°
2026-04-22 00:29 36.08255 -121.06361 15678 ft 366 kts 324°
2026-04-22 00:29 36.10329 -121.08172 15121 ft 365 kts 324°
2026-04-22 00:29 36.12392 -121.09974 14768 ft 359 kts 324°
2026-04-22 00:29 36.14394 -121.11725 14637 ft 345 kts 324°
2026-04-22 00:30 36.16300 -121.13393 14434 ft 328 kts 324°
2026-04-22 00:30 36.18134 -121.15002 13958 ft 319 kts 324°
2026-04-22 00:30 36.19927 -121.16574 13211 ft 314 kts 324°
2026-04-22 00:30 36.21702 -121.18134 12692 ft 313 kts 324°
2026-04-22 00:31 36.23473 -121.19695 12294 ft 312 kts 324°
2026-04-22 00:31 36.25237 -121.21250 11901 ft 310 kts 324°
2026-04-22 00:31 36.26992 -121.22794 11511 ft 309 kts 324°
2026-04-22 00:31 36.28741 -121.24330 11121 ft 307 kts 324°
2026-04-22 00:32 36.30483 -121.25860 10726 ft 306 kts 324°
2026-04-22 00:32 36.32216 -121.27385 10335 ft 305 kts 324°
2026-04-22 00:32 36.33927 -121.28891 10140 ft 299 kts 324°
2026-04-22 00:32 36.35621 -121.30384 10018 ft 299 kts 324°
2026-04-22 00:33 36.37312 -121.31876 9922 ft 297 kts 324°
2026-04-22 00:33 36.38999 -121.33366 9934 ft 298 kts 324°
2026-04-22 00:33 36.40680 -121.34849 9629 ft 295 kts 324°
2026-04-22 00:33 36.42282 -121.36389 9398 ft 283 kts 319°
2026-04-22 00:34 36.43506 -121.38179 9197 ft 266 kts 297°
2026-04-22 00:34 36.43995 -121.40326 8760 ft 258 kts 273°
2026-04-22 00:34 36.44259 -121.42461 8385 ft 245 kts 290°
2026-04-22 00:34 36.44977 -121.44354 7819 ft 240 kts 295°
2026-04-22 00:35 36.45679 -121.46223 7241 ft 237 kts 293°
2026-04-22 00:35 36.46327 -121.48090 6680 ft 234 kts 292°
2026-04-22 00:35 36.46957 -121.49934 6129 ft 230 kts 292°
2026-04-22 00:35 36.47575 -121.51742 5701 ft 221 kts 292°
2026-04-22 00:36 36.48160 -121.53453 5351 ft 211 kts 292°
2026-04-22 00:36 36.48724 -121.55102 4973 ft 201 kts 292°
2026-04-22 00:36 36.49256 -121.56658 4936 ft 197 kts 292°
2026-04-22 00:36 36.49774 -121.58174 4740 ft 183 kts 292°
2026-04-22 00:37 36.50245 -121.59558 4529 ft 168 kts 292°
2026-04-22 00:37 36.50692 -121.60870 4209 ft 159 kts 292°
2026-04-22 00:37 36.51122 -121.62103 3871 ft 153 kts 292°
2026-04-22 00:37 36.51533 -121.63323 3477 ft 153 kts 291°
2026-04-22 00:38 36.51949 -121.64534 3085 ft 152 kts 292°
2026-04-22 00:38 36.52383 -121.65802 2938 ft 168 kts 291°
2026-04-22 00:38 36.52847 -121.67185 2955 ft 177 kts 292°
2026-04-22 00:38 36.53301 -121.68520 2868 ft 161 kts 292°
2026-04-22 00:39 36.53732 -121.69776 2759 ft 156 kts 292°
2026-04-22 00:39 36.54152 -121.71001 2561 ft 153 kts 292°
2026-04-22 00:39 36.54561 -121.72218 2390 ft 152 kts 291°
2026-04-22 00:39 36.54953 -121.73433 2217 ft 151 kts 290°
2026-04-22 00:40 36.55347 -121.74639 2007 ft 151 kts 292°
2026-04-22 00:40 36.55771 -121.75826 1776 ft 150 kts 293°
2026-04-22 00:40 36.56191 -121.77010 1509 ft 149 kts 293°
2026-04-22 00:40 36.56600 -121.78189 1297 ft 148 kts 292°
2026-04-22 00:41 36.56977 -121.79381 1053 ft 148 kts 291°
2026-04-22 00:41 36.57380 -121.80556 846 ft 148 kts 291°
2026-04-22 00:41 36.57780 -121.81727 590 ft 147 kts 292°
2026-04-22 00:41 36.58178 -121.82891 351 ft 146 kts 292°
2026-04-22 00:42 36.58561 -121.84023 240 ft 132 kts 292°
2026-04-22 00:42 36.58815 -121.84779 208 ft 52 kts 293°
2026-04-22 00:42 36.58903 -121.84942 200 ft 15 kts 347°
2026-04-22 00:42 36.58951 -121.84946 201 ft 4 kts 331°
2026-04-22 00:43 36.58972 -121.84979 199 ft 9 kts 300°
2026-04-22 00:43 36.59003 -121.85069 194 ft 13 kts 295°